Weather History for Opa Locka, FL

Change the Weather History Date:

Saturday, September 7, 2013

  Actual Average Record
Temperature  
Mean Temperature 80 °F -  
Max Temperature 88 °F 89 °F 95 °F (1963)
Min Temperature 73 °F 75 °F 70 °F (1953)
Cooling Degree Days 16    
Growing Degree Days 30 (Base 50)    
Moisture  
Dew Point 73 °F    
Average Humidity 79    
Maximum Humidity 94    
Minimum Humidity 59    
Precipitation  
Precipitation 0.59 in - - ()
Sea Level Pressure  
Sea Level Pressure 29.96 in    
Wind  
Wind Speed 5 mph (NE)    
Max Wind Speed 20 mph    
Max Gust Speed 25 mph    
Visibility 10 miles    
Events Rain    
Averages and records for this station are not official NWS values.
T = Trace of Precipitation, MM = Missing Value Source: NWS Daily Summary

Daily Weather History Graph

Daily Weather History Graph

Search for Another Location

Airport:

Trip Planner

Search our weather history database for the weather conditions in past years. The results will help you decide how hot, cold, wet, or windy it might be!

Date:

Astronomy

Sep. 07, 2013 Rise Set
Actual Time 7:03 AM EDT 7:33 PM EDT
Civil Twilight 6:40 AM EDT 7:57 PM EDT
Nautical Twilight 6:13 AM EDT 8:24 PM EDT
Astronomical Twilight 5:45 AM EDT 8:51 PM EDT
Moon 8:58 AM EDT (9/7) 8:52 PM EDT (9/7)
Length of Visible Light 13h 16m
Length of Day
12h 29m
Waxing Crescent, 5% of the Moon is Illuminated
Sep 7
Waxing Crescent
Sep 12
First Quarter
Sep 19
Full
Sep 26
Last Quarter
Oct 4
New

Hourly Weather History & Observations

Time (EDT) Temp. Heat Index Dew Point Humidity Pressure Visibility Wind Dir Wind Speed Gust Speed Precip Events Conditions
12:53 AM 82.9 °F 90.2 °F 75.0 °F 77% 29.98 in 10.0 mi Calm Calm - N/A   Clear
1:53 AM 82.9 °F 90.2 °F 75.0 °F 77% 29.96 in 10.0 mi NE 3.5 mph - N/A   Clear
2:53 AM 82.9 °F 90.2 °F 75.0 °F 77% 29.94 in 10.0 mi North 3.5 mph - N/A   Scattered Clouds
3:53 AM 81.0 °F 86.7 °F 75.0 °F 82% 29.93 in 10.0 mi Calm Calm - N/A   Clear
4:53 AM 82.0 °F 89.4 °F 75.9 °F 82% 29.93 in 10.0 mi North 4.6 mph - N/A   Partly Cloudy
5:53 AM 81.0 °F 87.3 °F 75.9 °F 85% 29.94 in 10.0 mi North 4.6 mph - N/A   Partly Cloudy
6:53 AM 81.0 °F 87.9 °F 77.0 °F 88% 29.95 in 10.0 mi North 5.8 mph - N/A   Scattered Clouds
7:28 AM 75.2 °F - 71.6 °F 89% 29.95 in 10.0 mi ESE 16.1 mph 25.3 mph 0.00 in Rain Light Rain
7:37 AM 75.2 °F - 73.4 °F 94% 29.97 in 5.0 mi East 19.6 mph - 0.17 in Rain Heavy Rain
7:50 AM 73.4 °F - 71.6 °F 94% 29.98 in 6.0 mi East 15.0 mph - 0.33 in Rain Heavy Rain
7:53 AM 73.9 °F - 72.0 °F 93% 29.98 in 5.0 mi East 12.7 mph - 0.41 in Rain Heavy Rain
8:53 AM 75.0 °F - 73.0 °F 94% 29.99 in 10.0 mi NE 6.9 mph - 0.18 in   Partly Cloudy
9:53 AM 75.9 °F - 72.0 °F 87% 30.00 in 10.0 mi SE 6.9 mph - N/A   Clear
10:53 AM 78.1 °F - 72.0 °F 81% 30.00 in 10.0 mi South 5.8 mph - N/A   Clear
11:53 AM 82.0 °F 88.6 °F 75.0 °F 79% 30.01 in 10.0 mi SSE 6.9 mph - N/A   Clear
12:53 PM 84.0 °F 91.2 °F 73.9 °F 72% 30.00 in 10.0 mi SSW 3.5 mph - N/A   Partly Cloudy
1:53 PM 86.0 °F 92.2 °F 72.0 °F 63% 29.98 in 10.0 mi SSE 4.6 mph - N/A   Clear
2:53 PM 87.1 °F 92.8 °F 71.1 °F 59% 29.96 in 10.0 mi Calm Calm - N/A   Partly Cloudy
3:53 PM 87.1 °F 92.8 °F 71.1 °F 59% 29.94 in 10.0 mi Calm Calm - N/A   Scattered Clouds
4:53 PM 88.0 °F 94.7 °F 72.0 °F 59% 29.91 in 10.0 mi North 6.9 mph - N/A   Partly Cloudy
5:53 PM 84.9 °F 92.1 °F 73.9 °F 69% 29.92 in 10.0 mi North 10.4 mph - N/A   Clear
6:53 PM 82.9 °F 89.4 °F 73.9 °F 74% 29.92 in 10.0 mi NNE 6.9 mph - N/A   Partly Cloudy
7:53 PM 81.0 °F 85.8 °F 73.0 °F 77% 29.94 in 10.0 mi North 6.9 mph - N/A   Clear
8:53 PM 80.1 °F 84.2 °F 73.0 °F 79% 29.95 in 10.0 mi NNE 5.8 mph - N/A   Clear
9:53 PM 79.0 °F - 73.0 °F 82% 29.97 in 10.0 mi North 5.8 mph - N/A   Clear
10:53 PM 78.1 °F - 72.0 °F 81% 29.96 in 10.0 mi NNE 5.8 mph - N/A   Clear
11:53 PM 78.1 °F - 72.0 °F 81% 29.96 in 10.0 mi North 4.6 mph - N/A   Clear